Location: Glencliff
(36.1226°N, 86.7183°W)
Time: 17:02:41
(UTC+00:00)

DMSP B5D2-2 - Pass Details

Date: 25 August 2019
Orbit: 791 x 806 km, 98.4° (Epoch: 17 October)

Event Time Altitude Azimuth Distance (km) Brightness Sun altitude
Rises 02:25:34 0° 11° (N) 3,313 7.6 -22.9°
Reaches altitude 10° 02:27:54 10° 11° (N) 2,381 6.8 -23.3°
Maximum altitude 02:33:11 82° 285° (WNW) 815 4.1 -24.1°
Enters shadow 02:36:06 27° 199° (SSW) 1,485 5.3 -24.6°
